Regional Weather Roundup
Issued by NWS

Home | Current Version | Previous Version | Text Only | Print | Product List | Glossary Off
Versions: 1 2 3 4 5 6 7 8 9 10 11 12 13 14 15 16 17 18 19 20 21 22 23 24 25 26 27 28 29 30 31 32 33 34 35 36 37 38 39 40 41 42 43 44 45 46 47 48 49 50

208
ASUS43 KMKX 231211
RWRWI

WISCONSIN REGIONAL WEATHER ROUNDUP
NATIONAL WEATHER SERVICE MILWAUKEE/SULLIVAN WI
700 AM CDT SAT JUL 23 2016

NOTE: "FAIR" INDICATES FEW OR NO CLOUDS BELOW 12,000 FEET WITH NO
SIGNIFICANT WEATHER AND/OR OBSTRUCTIONS TO VISIBILITY.

WIZ001-002-006>008-014>016-023>028-231300-
NORTHWEST WISCONSIN

CITY           SKY/WX    TMP DP  RH WIND       PRES   REMARKS
SUPERIOR ARPT  SUNNY     62  62 100 CALM      29.98F
6HR MIN TEMP:  58; 6HR MAX TEMP:  68;

ASHLAND        SUNNY     63  61  93 CALM      30.01R
6HR MIN TEMP:  59; 6HR MAX TEMP:  68;

HAYWARD        SUNNY     68  62  81 N5        30.01F
6HR MIN TEMP:  62; 6HR MAX TEMP:  68;

SIREN          SUNNY     66  64  94 CALM      29.98F
CUMBERLAND     SUNNY     66  64  94 CALM      30.00S
RICE LAKE      SUNNY     67  66  96 CALM      30.01S
6HR MIN TEMP:  64; 6HR MAX TEMP:  68;

CHETEK         SUNNY     68  68  98 CALM      30.00S
6HR MIN TEMP:  64; 6HR MAX TEMP:  70;

LADYSMITH      SUNNY     69  66  92 E3        30.03S
6HR MIN TEMP:  65; 6HR MAX TEMP:  69;

EAU CLAIRE     SUNNY     69  68  96 NE3       29.98S
6HR MIN TEMP:  64; 6HR MAX TEMP:  71;

MENOMONIE      MOSUNNY   69  68  98 CALM      29.98S
6HR MIN TEMP:  66; 6HR MAX TEMP:  71;

NEW RICHMOND   CLOUDY    69  67  95 E3        29.97F
6HR MIN TEMP:  64; 6HR MAX TEMP:  69;

OSCEOLA        CLOUDY    70  70 100 SE5       29.98F
6HR MIN TEMP:  64; 6HR MAX TEMP:  70;

$$

WIZ003>005-009-010-017-018-231300-
NORTH CENTRAL WISCONSIN

CITY           SKY/WX    TMP DP  RH WIND       PRES   REMARKS
MANITOWISH WTR SUNNY     63  63 100 CALM      30.04S
6HR MIN TEMP:  58; 6HR MAX TEMP:  63;

ARBOR VITAE    SUNNY     65  63  93 CALM      30.04S
6HR MIN TEMP:  62; 6HR MAX TEMP:  65;

WOODRUFF       SUNNY     65  63  93 CALM      30.04S
6HR MIN TEMP:  62; 6HR MAX TEMP:  65;

RHINELANDER    MOSUNNY   67  65  93 CALM      30.05S
6HR MIN TEMP:  59; 6HR MAX TEMP:  67;

EAGLE RIVER    SUNNY     62  62 100 CALM      30.04S
6HR MIN TEMP:  56; 6HR MAX TEMP:  63;

LAND O LAKES   SUNNY     60  60 100 CALM      30.06R
6HR MIN TEMP:  54; 6HR MAX TEMP:  60;

PHILLIPS       SUNNY     65  65  99 CALM      30.03R
6HR MIN TEMP:  62; 6HR MAX TEMP:  67;

TOMAHAWK       PTSUNNY   62  61  96 CALM      30.04S
6HR MIN TEMP:  57; 6HR MAX TEMP:  63;

MEDFORD        MOSUNNY   65  65 100 NE3       30.02S
6HR MIN TEMP:  61; 6HR MAX TEMP:  65;

MERRILL        MOSUNNY   64  64 100 CALM      30.04R
6HR MIN TEMP:  60; 6HR MAX TEMP:  66;

$$

WIZ029-030-035-036-043>047-231300-
CENTRAL WISCONSIN

CITY           SKY/WX    TMP DP  RH WIND       PRES   REMARKS
WAUSAU         CLOUDY    69  67  93 CALM      30.00S
6HR MIN TEMP:  65; 6HR MAX TEMP:  71;

MOSINEE        SUNNY     70  68  94 CALM      30.02S
MARSHFIELD     SUNNY     70  66  87 E3        30.01S
6HR MIN TEMP:  66; 6HR MAX TEMP:  71;

STEVENS POINT  MOSUNNY   65  64  97 CALM      30.01S
6HR MIN TEMP:  61; 6HR MAX TEMP:  67;

WAUPACA        MOSUNNY   70  70  99 CALM      30.00S
6HR MIN TEMP:  66; 6HR MAX TEMP:  72;

WAUTOMA        SUNNY     67  65  93 CALM      30.00S
6HR MIN TEMP:  64; 6HR MAX TEMP:  69;

WISC RAPIDS    SUNNY     71  67  87 CALM      30.01F
6HR MIN TEMP:  63; 6HR MAX TEMP:  71;

CAMP DOUGLAS   FOG       66  66 100 CALM      29.99S VSB 1/4
6HR MIN TEMP:  61; 6HR MAX TEMP:  67;

$$

WIZ011>013-019>022-031-037>040-048>050-231300-
NORTHEAST WISCONSIN

CITY           SKY/WX    TMP DP  RH WIND       PRES   REMARKS
ANTIGO         MOSUNNY   67  65  96 CALM      30.05R
6HR MIN TEMP:  61; 6HR MAX TEMP:  67;

SHAWANO        MOSUNNY   70  68  95 CALM      30.00R
6HR MIN TEMP:  65; 6HR MAX TEMP:  71;

OCONTO         MOSUNNY  N/A N/A N/A CALM      29.98S
STURGEON BAY   MOSUNNY   72  68  87 CALM      29.98F
6HR MIN TEMP:  68; 6HR MAX TEMP:  72;

GREEN BAY      SUNNY     72  70  93 CALM      29.98F
6HR MIN TEMP:  64; 6HR MAX TEMP:  73;

MANITOWOC      MOSUNNY   72  66  81 N6        29.98F
6HR MIN TEMP:  68; 6HR MAX TEMP:  76;

APPLETON       MOSUNNY   72  63  73 NE6       29.98F
CLINTONVILLE   SUNNY     66  66 100 CALM      30.00R
OSHKOSH        MOSUNNY   75  69  81 CALM      29.99R
6HR MIN TEMP:  67; 6HR MAX TEMP:  76;

$$

WIZ032>034-041-042-053>061-231300-
SOUTHWEST WISCONSIN

CITY           SKY/WX    TMP DP  RH WIND       PRES   REMARKS
LA CROSSE      CLOUDY    75  73  93 E6        29.96S FOG
6HR MIN TEMP:  75; 6HR MAX TEMP:  79;

SPARTA         MOSUNNY   65  65  99 CALM      29.99S
6HR MIN TEMP:  62; 6HR MAX TEMP:  69;

VIROQUA        PTSUNNY   77  77 100 CALM      30.00S
6HR MIN TEMP:  73; 6HR MAX TEMP:  77;

BOSCOBEL       FOG       77  76  96 CALM      29.96F VSB 1/4
6HR MIN TEMP:  76; 6HR MAX TEMP:  78;

PRAIRIE DU CHI MOSUNNY   76  74  93 CALM      29.96S
6HR MIN TEMP:  75; 6HR MAX TEMP:  76;

PLATTEVILLE    CLOUDY    77  77 100 SE3       29.99F
6HR MIN TEMP:  74; 6HR MAX TEMP:  77;

$$

WIZ056-057-062-063-064-067-068-231300-
SOUTH CENTRAL WISCONSIN

CITY           SKY/WX    TMP DP  RH WIND       PRES   REMARKS
REEDSBURG      FOG       73  73 100 CALM      29.99S VSB<1/4
6HR MIN TEMP:  71; 6HR MAX TEMP:  76;

BARABOO/DELLS  FOG       73  72  94 CALM      29.99F VSB 1/4
6HR MIN TEMP:  71; 6HR MAX TEMP:  76;

LONE ROCK      FOG       75  74  96 CALM      29.98S VSB 1/2
6HR MIN TEMP:  74; 6HR MAX TEMP:  77;

MINERAL POINT  FOG       77  77 100 CALM      30.00F VSB 1/2
MADISON        PTSUNNY   77  75  93 CALM      29.98F
6HR MIN TEMP:  72; 6HR MAX TEMP:  77;

MIDDLETON      CLOUDY    77  77 100 CALM      29.99F
6HR MIN TEMP:  72; 6HR MAX TEMP:  77;

WATERTOWN      FOG       74  74 100 CALM      29.99S VSB 1/2
6HR MIN TEMP:  71; 6HR MAX TEMP:  75;

MONROE         SUNNY     77  75  94 CALM      29.99F
JANESVILLE     MOSUNNY   77  75  94 CALM      29.98F
$$

WIZ051-052-058>065-066-070>072-231300-
SOUTHEAST WISCONSIN

CITY           SKY/WX    TMP DP  RH WIND       PRES   REMARKS
MILWAUKEE      MOSUNNY   80  75  84 CALM      29.98F HX  85
6HR MIN TEMP:  74; 6HR MAX TEMP:  80;

WAUKESHA       FOG       72  72 100 CALM      30.01S VSB 1/2
MILWAUKEE/TIMM SUNNY     73  70  88 CALM      29.99F
RACINE         SUNNY     78  75  90 NW3       30.00F HX  81
6HR MIN TEMP:  74; 6HR MAX TEMP:  78;

BURLINGTON     SUNNY     75  74  99 CALM      29.98F FOG
6HR MIN TEMP:  71; 6HR MAX TEMP:  75;

KENOSHA        PTSUNNY   77  75  93 CALM      29.99F FOG
6HR MIN TEMP:  73; 6HR MAX TEMP:  77;

FOND DU LAC    FOG       71  69  93 CALM      29.99F VSB 1/4
6HR MIN TEMP:  69; 6HR MAX TEMP:  74;

SHEBOYGAN      SUNNY     73  70  90 SW5       29.98F
6HR MIN TEMP:  67; 6HR MAX TEMP:  73;

WEST BEND      FOG       72  70  94 CALM      30.00S VSB<1/4
JUNEAU         FOG       73  73  99 CALM      30.01S VSB<1/4
6HR MIN TEMP:  71; 6HR MAX TEMP:  74;

$$

LSZ147-162-231300-
LAKE SUPERIOR

STATION/POSITION TIME  TEMP    WIND        PRES    WAVE
                       AIR SEA DIR/SP/G            HT/PER
                 (UTC) (F)     (DEG/KT/KT) (MB)    (FT/S)
W MID LAKE BUOY  1150   62 57   80/  2/  4 1015.2R   0
DEVILS ISLAND    1100   69     230/  5/  5 1015.5F
SAXON HARBOR     1140   64     190/  5/  9 1015.6S
$$

LMZ867-665-643>646-231300-
LAKE MICHIGAN

STATION/POSITION TIME  TEMP    WIND        PRES    WAVE
                       AIR SEA DIR/SP/G            HT/PER
                 (UTC) (F)     (DEG/KT/KT) (MB)    (FT/S)
CHAMBERS ISLAND  1100   65        CALMC1F1C2F2C3F3C4F4C5F5C6F6C7F7C8M1C9M2Ca!



USA.gov is the U.S. government's official web portal to all federal, state and local government web resources and services.